Amateur Radio Satellites - All Passes

Search period start: 19 May 2013 09:57
Search period end: 20 May 2013 09:57
Location: BGSU Observatory, 41.3799°N, 83.6397°W

Satellite Date Start Highest point End Downlink Frequencies (MHz)
Time Altitude Azimuth
Sapphire 19 May 10:06:39 10:11:45 41° 306° (NW) 10:16:53 437.095 MHz 1200 baud AX-25 AFSK
SO-50 19 May 10:15:16 10:19:54 50° 118° (ESE) 10:24:29 436.795 FM
SO-67 19 May 10:34:00 10:35:39 13° 294° (WNW) 10:37:18 435.3500 MHz FM
JAS-2 19 May 10:34:04 10:40:14 32° 92° (E) 10:45:46 435.800 - 435.900 CW/SSB, 435.910 FM
JAS-1B 19 May 10:37:36 10:43:08 33° 296° (WNW) 10:48:11 435.800 - 435.900 CW/SSB
KITSAT 1 19 May 10:39:02 10:46:48 50° 248° (WSW) 10:54:31 435.175 FM
Oscar 11 19 May 10:49:18 10:53:07 29° 96° (E) 10:56:54 145.825 FM, Beacon 2401.500 USB
PCSat 19 May 11:20:30 11:23:15 14° 322° (NW) 11:26:00 145.825 MHz
ISS 19 May 11:25:34 11:28:56 89° 215° (SW) 11:32:19 145.800 FM
HO-68 19 May 11:32:05 11:39:16 81° 288° (WNW) 11:46:25 435.675 MHz FM
OPAL 19 May 11:43:35 11:48:27 47° 101° (ESE) 11:53:13 ?
MaSat-1 19 May 11:52:52 11:54:16 12° 44° (NE) 11:55:34 437.345 MHz
SO-50 19 May 11:56:56 12:00:47 24° 316° (NW) 12:04:36 436.795 FM
UOSAT-12 19 May 12:02:49 12:04:32 12° 108° (ESE) 12:06:14 437.025 FM, 437.400 FM
JAS-2 19 May 12:18:42 12:25:29 46° 293° (WNW) 12:31:30 435.800 - 435.900 CW/SSB, 435.910 FM
Oscar 11 19 May 12:25:38 12:29:14 26° 292° (WNW) 12:32:50 145.825 FM, Beacon 2401.500 USB
ISS 19 May 13:04:33 13:05:10 10° 232° (SW) 13:05:46 145.800 FM
Oscar 16 19 May 13:07:45 13:10:52 16° 61° (ENE) 13:13:59 437.025 USB, Beacon 2401.1428
AO-27 19 May 13:09:12 13:11:12 12° 58° (ENE) 13:13:13 436.795 MHz FM
ITAMSAT 1 19 May 13:16:09 13:18:44 14° 59° (ENE) 13:21:19 435.822 SSB
HO-68 19 May 13:21:44 13:25:52 17° 307° (NW) 13:30:01 435.675 MHz FM
OPAL 19 May 13:23:14 13:27:01 22° 299° (WNW) 13:30:45 ?
MaSat-1 19 May 13:33:39 13:36:48 36° 252° (WSW) 13:39:24 437.345 MHz
UOSAT-12 19 May 13:39:34 13:44:04 74° 304° (NW) 13:48:38 437.025 FM, 437.400 FM
Uribyol 2 19 May 13:55:42 14:00:16 33° 67° (ENE) 14:04:52 436.500 FM
Oscar 19 19 May 14:06:05 14:11:01 46° 70° (ENE) 14:15:58 437.125 CW, 437.150 USB
Uosat F 19 May 14:33:10 14:33:56 10° 57° (ENE) 14:34:43 435.120 FM
AO-Echo 19 May 14:39:58 14:43:58 26° 67° (ENE) 14:47:54 ?
Saudisat 1A 19 May 14:44:23 14:46:56 15° 38° (NE) 14:49:28 436.775 MHz
Oscar 16 19 May 14:44:29 14:49:39 68° 258° (WSW) 14:54:52 437.025 USB, Beacon 2401.1428
AO-27 19 May 14:44:47 14:49:57 90° 75° (ENE) 14:55:11 436.795 MHz FM
Gurwin Techsat 1B 19 May 14:51:32 14:54:05 14° 59° (ENE) 14:56:38 435.225 FM
ITAMSAT 1 19 May 14:52:24 14:57:34 80° 257° (WSW) 15:02:46 435.822 SSB
UOSAT-12 19 May 15:23:03 15:25:03 13° 324° (NW) 15:27:04 437.025 FM, 437.400 FM
Uribyol 2 19 May 15:35:12 15:39:44 31° 264° (W) 15:44:18 436.500 FM
Oscar 19 19 May 15:46:36 15:50:34 22° 267° (W) 15:54:34 437.125 CW, 437.150 USB
PANSAT 19 May 16:03:12 16:04:47 12° 181° (S) 16:06:23 not established
Uosat F 19 May 16:06:55 16:11:54 81° 75° (ENE) 16:16:56 435.120 FM
TMSAT-1 19 May 16:08:46 16:13:46 44° 70° (ENE) 16:18:47 436.925 FM
AO-Echo 19 May 16:18:09 16:22:38 35° 263° (W) 16:27:01 ?
Saudisat 1A 19 May 16:22:45 16:27:20 89° 61° (ENE) 16:31:47 436.775 MHz
AO-7 19 May 16:23:18 16:30:33 36° 59° (ENE) 16:37:50 29.400 - 29.500 MHz
Gurwin Techsat 1B 19 May 16:28:01 16:33:20 84° 257° (WSW) 16:38:41 435.225 FM
AO-27 19 May 16:29:39 16:30:11 10° 272° (W) 16:30:42 436.795 MHz FM
PCSat 19 May 16:39:10 16:42:41 17° 42° (NE) 16:46:10 145.825 MHz
RS-15 19 May 17:07:18 17:18:30 47° 110° (ESE) 17:29:17 29.354 - 29.394 USB, Beacon 29.352 USB
Sapphire 19 May 17:11:22 17:15:55 26° 48° (NE) 17:20:27 437.095 MHz 1200 baud AX-25 AFSK
TMSAT-1 19 May 17:49:44 17:53:53 23° 267° (W) 17:58:03 436.925 FM
Uosat F 19 May 17:49:54 17:51:19 11° 271° (W) 17:52:43 435.120 FM
AO-7 19 May 18:14:56 18:22:59 55° 258° (WSW) 18:31:09 29.400 - 29.500 MHz
PCSat 19 May 18:21:24 18:26:52 88° 242° (WSW) 18:32:18 145.825 MHz
SO-50 19 May 18:47:28 18:51:52 45° 52° (NE) 18:56:10 436.795 FM
STRAND 1 19 May 18:51:46 18:54:57 16° 91° (E) 18:58:07 ?
Sapphire 19 May 18:54:23 18:59:37 50° 247° (WSW) 19:04:49 437.095 MHz 1200 baud AX-25 AFSK
RS-15 19 May 19:18:59 19:30:45 57° 312° (NW) 19:42:03 29.354 - 29.394 USB, Beacon 29.352 USB
JAS-1B 19 May 19:29:11 19:37:37 41° 66° (ENE) 19:44:59 435.800 - 435.900 CW/SSB
SO-67 19 May 19:36:12 19:38:29 16° 68° (ENE) 19:40:46 435.3500 MHz FM
Hamsat 19 May 19:55:04 19:59:16 85° 257° (WSW) 20:03:31 145.90 MHz
PCSat 19 May 20:07:49 20:09:27 11° 258° (WSW) 20:11:04 145.825 MHz
HO-68 19 May 20:16:40 20:20:38 16° 52° (NE) 20:24:37 435.675 MHz FM
SO-50 19 May 20:28:51 20:32:09 20° 249° (WSW) 20:35:25 436.795 FM
STRAND 1 19 May 20:29:28 20:34:32 60° 288° (WNW) 20:39:35 ?
UOSAT-12 19 May 20:30:18 20:33:03 15° 39° (NE) 20:35:48 437.025 FM, 437.400 FM
JAS-2 19 May 20:46:28 20:51:31 19° 55° (NE) 20:56:35 435.800 - 435.900 CW/SSB, 435.910 FM
SO-67 19 May 21:08:32 21:11:42 30° 263° (W) 21:14:54 435.3500 MHz FM
JAS-1B 19 May 21:18:47 21:27:56 51° 260° (W) 21:35:57 435.800 - 435.900 CW/SSB
OPAL 19 May 21:23:30 21:25:32 12° 56° (NE) 21:27:33 ?
RS-15 19 May 21:37:25 21:46:25 24° 342° (NNW) 21:55:08 29.354 - 29.394 USB, Beacon 29.352 USB
Oscar 11 19 May 21:45:09 21:48:37 24° 67° (ENE) 21:52:05 145.825 FM, Beacon 2401.500 USB
HO-68 19 May 22:00:06 22:07:13 78° 71° (ENE) 22:14:22 435.675 MHz FM
UOSAT-12 19 May 22:09:14 22:13:51 86° 239° (WSW) 22:18:27 437.025 FM, 437.400 FM
JAS-2 19 May 22:27:43 22:35:21 83° 74° (ENE) 22:43:16 435.800 - 435.900 CW/SSB, 435.910 FM
OPAL 19 May 22:58:25 23:03:38 86° 73° (ENE) 23:08:51 ?
KITSAT 1 19 May 23:13:40 23:19:50 25° 104° (ESE) 23:26:01 435.175 FM
Oscar 11 19 May 23:20:54 23:24:42 30° 264° (W) 23:28:32 145.825 FM, Beacon 2401.500 USB
HO-68 19 May 23:50:49 23:55:36 19° 269° (W) 00:00:25 435.675 MHz FM
RS-15 19 May 23:55:29 00:04:15 24° 18° (NNE) 00:12:44 29.354 - 29.394 USB, Beacon 29.352 USB
JAS-2 20 May 00:15:44 00:21:07 21° 272° (W) 00:26:41 435.800 - 435.900 CW/SSB, 435.910 FM
OPAL 20 May 00:41:36 00:43:08 11° 269° (W) 00:44:41 ?
KITSAT 1 20 May 01:06:24 01:14:27 73° 303° (WNW) 01:22:35 435.175 FM
RS-15 20 May 02:08:44 02:19:45 58° 49° (NE) 02:30:26 29.354 - 29.394 USB, Beacon 29.352 USB
Uribyol 2 20 May 02:10:49 02:12:13 11° 88° (E) 02:13:37 436.500 FM
Oscar 19 20 May 02:19:01 02:22:08 16° 91° (E) 02:25:14 437.125 CW, 437.150 USB
MaSat-1 20 May 02:22:18 02:28:24 30° 107° (ESE) 02:33:43 437.345 MHz
Oscar 16 20 May 02:56:25 03:01:21 43° 98° (E) 03:06:14 437.025 USB, Beacon 2401.1428
AO-27 20 May 02:58:11 03:02:52 32° 97° (E) 03:07:31 436.795 MHz FM
KITSAT 1 20 May 03:05:27 03:11:22 22° 327° (NNW) 03:17:21 435.175 FM
ITAMSAT 1 20 May 03:05:32 03:10:22 37° 98° (E) 03:15:11 435.822 SSB
Oscar 10/S400 20 May 03:42:00 05:38:24 14° 75° (ENE) 06:58:11 145.825 - 145.975 CW/USB, Beacon 145.810 USB
Uribyol 2 20 May 03:47:06 03:52:22 86° 285° (WNW) 03:57:36 436.500 FM
Oscar 19 20 May 03:56:48 04:01:55 61° 287° (WNW) 04:06:59 437.125 CW, 437.150 USB
MaSat-1 20 May 04:03:31 04:10:29 53° 299° (WNW) 04:16:15 437.345 MHz
ISS 20 May 04:08:14 04:11:07 28° 135° (SE) 04:14:01 145.800 FM
Uosat F 20 May 04:15:18 04:19:25 25° 95° (E) 04:23:30 435.120 FM
RS-15 20 May 04:21:42 04:31:41 42° 252° (WSW) 04:41:31 29.354 - 29.394 USB, Beacon 29.352 USB
AO-Echo 20 May 04:24:39 04:29:23 73° 102° (ESE) 04:34:11 ?
TMSAT-1 20 May 04:25:36 04:29:07 18° 91° (E) 04:32:36 436.925 FM
Oscar 16 20 May 04:36:21 04:40:27 24° 295° (WNW) 04:44:31 437.025 USB, Beacon 2401.1428
AO-27 20 May 04:37:45 04:42:19 32° 293° (WNW) 04:46:53 436.795 MHz FM
Gurwin Techsat 1B 20 May 04:44:28 04:49:27 40° 98° (E) 04:54:24 435.225 FM
ITAMSAT 1 20 May 04:45:20 04:49:43 28° 294° (WNW) 04:54:06 435.822 SSB
KITSAT 1 20 May 05:08:41 05:10:40 11° 357° (N) 05:12:38 435.175 FM
Uribyol 2 20 May 05:29:10 05:31:03 12° 302° (WNW) 05:32:55 436.500 FM
ISS 20 May 05:44:37 05:47:45 37° 332° (NNW) 05:50:54 145.800 FM
MaSat-1 20 May 05:51:55 05:53:38 11° 316° (NW) 05:55:16 437.345 MHz
Uosat F 20 May 05:53:41 05:58:18 38° 291° (WNW) 06:02:55 435.120 FM
TMSAT-1 20 May 06:04:12 06:09:25 58° 288° (WNW) 06:14:37 436.925 FM
AO-Echo 20 May 06:05:31 06:07:36 13° 299° (WNW) 06:09:42 ?
STRAND 1 20 May 06:07:43 06:11:48 25° 65° (ENE) 06:15:54 ?
AO-7 20 May 06:16:05 06:24:14 53° 102° (ESE) 06:32:20 29.400 - 29.500 MHz
Gurwin Techsat 1B 20 May 06:24:50 06:29:14 27° 294° (WNW) 06:33:37 435.225 FM
Saudisat 1A 20 May 06:30:49 06:34:28 24° 112° (ESE) 06:38:09 436.775 MHz
KITSAT 1 20 May 07:04:57 07:10:14 18° 28° (NNE) 07:15:30 435.175 FM
ISS 20 May 07:23:06 07:25:11 15° 352° (N) 07:27:16 145.800 FM
PCSat 20 May 07:24:40 07:25:55 11° 101° (ESE) 07:27:11 145.825 MHz
Hamsat 20 May 07:42:29 07:45:29 18° 92° (E) 07:48:28 145.90 MHz
STRAND 1 20 May 07:46:01 07:50:47 40° 262° (W) 07:55:35 ?
Sapphire 20 May 07:54:27 07:58:23 21° 106° (ESE) 08:02:21 437.095 MHz 1200 baud AX-25 AFSK
AO-7 20 May 08:09:19 08:16:44 37° 301° (WNW) 08:24:10 29.400 - 29.500 MHz
Saudisat 1A 20 May 08:09:38 08:13:57 40° 310° (NW) 08:18:19 436.775 MHz
SO-67 20 May 08:35:32 08:38:15 20° 94° (E) 08:40:56 435.3500 MHz FM
KITSAT 1 20 May 08:59:37 09:07:37 57° 53° (NE) 09:15:35 435.175 FM
ISS 20 May 09:00:35 09:02:54 17° 13° (NNE) 09:05:13 145.800 FM
PCSat 20 May 09:03:03 09:08:28 86° 118° (ESE) 09:13:56 145.825 MHz
SO-50 20 May 09:04:48 09:07:31 15° 109° (ESE) 09:10:13 436.795 FM
JAS-1B 20 May 09:05:40 09:11:38 48° 99° (E) 09:17:06 435.800 - 435.900 CW/SSB
Hamsat 20 May 09:17:38 09:21:43 40° 288° (WNW) 09:25:48 145.90 MHz
HO-68 20 May 09:30:35 09:33:41 13° 88° (E) 09:36:45 435.675 MHz FM
Sapphire 20 May 09:36:05 09:41:23 55° 303° (WNW) 09:46:43 437.095 MHz 1200 baud AX-25 AFSK
JAS-2 20 May 09:42:42 09:44:18 11° 82° (E) 09:45:52 435.800 - 435.900 CW/SSB, 435.910 FM

Developed and maintained by Chris Peat, Heavens-Above GmbH. Please read the updated FAQ before sending e-mail. Imprint. DLR
